User: anonymous   Login
Location: Unspecified
(0.0000°N, 0.0000°E)
Time: 00:10:48
(UTC+00:00)
Language:

STARLINK-32311 - Orbit

View from above orbital plane
View from above orbital plane
View from above satellite
View from above satellite

Ground track
Ground track

The orbit is defined by the following mean orbital elements,

1 62114U          26145.13623653 +.00000000 +00000-0 +35902-3 0 00006
2 62114  43.0021  49.4716 0001573 262.5709  97.4964 15.27590215    00
Epoch (UTC): 25 May 2026 03:16:10
Eccentricity: 0.0001573
inclination: 43.0021°
perigee height: 482 km
apogee height: 484 km
right ascension of ascending node: 49.4716°
argument of perigee: 262.5709°
revolutions per day: 15.27590215
mean anomaly at epoch: 97.4964°

The dashed part of the orbit path shows where the satellite is in the earth's shadow,  

DLR